Regional Weather Roundup
Issued by NWS

Home | Current Version | Previous Version | Text Only | Print | Product List | Glossary Off
Versions: 1 2 3 4 5 6 7 8 9 10 11 12 13 14 15 16 17 18 19 20 21 22 23 24 25 26 27 28 29 30 31 32 33 34 35 36 37 38 39 40 41 42 43 44 45 46 47 48 49 50

000
ASUS43 KMKX 301231
RWRWI

WISCONSIN REGIONAL WEATHER ROUNDUP
NATIONAL WEATHER SERVICE MILWAUKEE/SULLIVAN WI
800 AM CDT SAT MAY 30 2015

NOTE: "FAIR" INDICATES FEW OR NO CLOUDS BELOW 12,000 FEET WITH NO
SIGNIFICANT WEATHER AND/OR OBSTRUCTIONS TO VISIBILITY.

WIZ001-002-006>008-014>016-023>028-301400-
NORTHWEST WISCONSIN

CITY           SKY/WX    TMP DP  RH WIND       PRES   REMARKS
SUPERIOR ARPT  SUNNY     45  36  69 NE5       30.23R
ASHLAND        CLOUDY    48  41  76 N12       30.19R
HAYWARD        CLOUDY    47  40  76 N13       30.18R
SIREN          MOSUNNY   44  37  77 N8        30.20R
CUMBERLAND     MOSUNNY   43  37  81 N13G18    30.16R
RICE LAKE      CLOUDY    47  40  76 N8        30.17R
CHETEK         CLOUDY    48  44  85 N6        30.15R
LADYSMITH      CLOUDY    49  45  85 N10G20    30.14R
EAU CLAIRE     CLOUDY    51  44  77 N9        30.11R
MENOMONIE      CLOUDY    51  45  80 N7        30.13R
NEW RICHMOND   PTSUNNY   46  40  81 N14       30.17R
OSCEOLA        MOSUNNY   45  42  90 N9        30.21R
$$

WIZ003>005-009-010-017-018-301400-
NORTH CENTRAL WISCONSIN

CITY           SKY/WX    TMP DP  RH WIND       PRES   REMARKS
MANITOWISH WTR CLOUDY    46  46 100 N9        30.13R FOG
ARBOR VITAE    CLOUDY    49  48  94 N10       30.11R
WOODRUFF       CLOUDY    49  48  94 N10       30.11R
RHINELANDER    CLOUDY    50  47  89 VRB7      30.09R
EAGLE RIVER    DRIZZLE   49  48  98 NE12      30.10R
LAND O LAKES   DRIZZLE   48  46  93 NE9       30.12R
PHILLIPS       CLOUDY    47  44  91 N12G17    30.12R
TOMAHAWK       CLOUDY    48  47  95 N5        30.10R
MEDFORD        CLOUDY    49  48  96 N10       30.08R
MERRILL        CLOUDY    52  51  97 N7        30.08R
$$

WIZ029-030-035-036-043>047-301400-
CENTRAL WISCONSIN

CITY           SKY/WX    TMP DP  RH WIND       PRES   REMARKS
WAUSAU         CLOUDY    54  49  83 VRB5      30.06R
MOSINEE        LGT RAIN  54  52  94 NE14      30.07R
MARSHFIELD     LGT RAIN  54  49  83 NE12      30.06R
STEVENS POINT  LGT RAIN  51  49  90 NE13      30.06R
WAUPACA        HVY RAIN  54  53  96 NE8       30.06R
WAUTOMA        RAIN      54  54 100 NE12G20   30.04R VSB 1
WISC RAPIDS    CLOUDY    55  48  77 E12G23    30.07R
CAMP DOUGLAS   RAIN      57  57 100 N10       30.03R FOG
$$

WIZ011>013-019>022-031-037>040-048>050-301400-
NORTHEAST WISCONSIN

CITY           SKY/WX    TMP DP  RH WIND       PRES   REMARKS
ANTIGO         CLOUDY    51  48  90 N15       30.07R
SHAWANO        DRIZZLE   55  52  92 NE9       30.06R
OCONTO         CLOUDY    51  51 100 NE7       30.06R
STURGEON BAY   CLOUDY    50  45  81 N12G21    30.08R
GREEN BAY      RAIN      53  51  93 NE14      30.05R FOG
MANITOWOC      LGT RAIN  52  49  89 NE8G23    30.04R
APPLETON       LGT RAIN  52  52 100 NE16G26   30.04R FOG
CLINTONVILLE   LGT RAIN  52  52 100 NE5       30.05R
OSHKOSH        CLOUDY    55  51  86 NE21G29   30.02R
$$

WIZ032>034-041-042-053>061-301400-
SOUTHWEST WISCONSIN

CITY           SKY/WX    TMP DP  RH WIND       PRES   REMARKS
LA CROSSE      CLOUDY    56  52  86 N12G21    30.05R
SPARTA         DRIZZLE   54  52  94 N10       30.05R
VIROQUA        CLOUDY    55  55 100 N16       30.02R
BOSCOBEL       CLOUDY    62  58  86 N9        29.98R
PRAIRIE DU CHI CLOUDY    61  55  82 N12G22    29.99R
PLATTEVILLE    CLOUDY    65  64  96 W5        29.95S
$$

WIZ056-057-062-063-064-067-068-301400-
SOUTH CENTRAL WISCONSIN

CITY           SKY/WX    TMP DP  RH WIND       PRES   REMARKS
REEDSBURG      LGT RAIN  59  58  97 N8        29.98R
BARABOO/DELLS  LGT RAIN  58  56  94 N10G17    29.98R
LONE ROCK      CLOUDY    63  59  87 N17G29    29.95R
MINERAL POINT  CLOUDY    64  63  94 SW5       29.95R
MADISON        CLOUDY    67  63  87 SW5       29.94R
MIDDLETON      CLOUDY    67  65  95 SW3       29.95R
WATERTOWN      DRIZZLE  N/A N/A N/A S3        29.94R
MONROE         CLOUDY    64  61  88 SW6       29.96R
JANESVILLE     CLOUDY    66  64  94 SW6       29.95R
$$

WIZ051-052-058>065-066-070>072-301400-
SOUTHEAST WISCONSIN

CITY           SKY/WX    TMP DP  RH WIND       PRES   REMARKS
MILWAUKEE      LGT RAIN  51  49  92 N17G25    30.00R FOG
WAUKESHA       RAIN      54  54 100 NE16G25   30.00R
MILWAUKEE/TIMM LGT RAIN  52  50  93 NE12G18   30.01R
RACINE         LGT RAIN  53  51  93 N13       30.01R
BURLINGTON     RAIN      64  63  98 CALM      29.97R
KENOSHA        LGT RAIN  67  64  90 SW3       29.98R
FOND DU LAC    HVY RAIN  57  55  93 NE16      30.01R FOG
SHEBOYGAN      CLOUDY    52  49  89 NE22G32   30.01R
WEST BEND      LGT RAIN  54  52  94 NE12G20   30.00R
JUNEAU         LGT RAIN  64  63  96 E7        29.96R
$$

LSZ147-162-301400-
LAKE SUPERIOR

STATION/POSITION TIME  TEMP    WIND        PRES    WAVE
                       AIR SEA DIR/SP/G            HT/PER
                 (UTC) (F)     (DEG/KT/KT) (MB)    (FT/S)
W MID LAKE BUOY  1150   40 37   20/ 10/ 10   N/A     1/ 4
DEVILS ISLAND    1200   44      20/ 13/ 15   N/A
PORT WING        1100   46     330/  5/  6   N/A
SAXON HARBOR     1000   49     320/ 11/ 13   N/A
$$

LMZ867-665-643>646-301400-
LAKE MICHIGAN

STATION/POSITION TIME  TEMP    WIND        PRES    WAVE
                       AIR SEA DIR/SP/G            HT/PER
                 (UTC) (F)     (DEG/KT/KT) (MB)    (FT/S)
CHAMBERS ISLAND  1100   52     350/ 11/ 15   N/A
N MID LAKE BUOY  1150   41 37  330/  8/ 10   N/A     1/ 3
NORTHPORT PIER   1000   52     350/ 15/ 19   N/A
SISTER BAY       1118   50     360/ 15/ 21   N/A
ALGOMA LAKESHORE 1138           10/ 11/ 16   N/A
KEWAUNEE LAKESHO 1200   48      20/  7/ 12   N/A
SHEBOYGAN LAKESH 1200   48      10/ 19/ 20   N/A
PORT WASHINGTON  1140   53      30/ 13/ 24   N/A
ATWATER BUOY     1200   50      10/ 14/ 16   N/A
MILWAUKEE LAKESH 1200   51      10/ 14/ 19   N/A
S MID LAKE BUOY  1150   49 38  230/  2/  4   N/A     1
KENOSHA   LAKESH 1200   61     200/  3/  5   N/A
$$

TC  - TEMPERATURE IN CELSIUS
VSB - VISIBILITY IN STATUTE MILES
WCI - WIND CHILL INDEX
HX  - HEAT INDEX




USA.gov is the U.S. government's official web portal to all federal, state and local government web resources and services.